Time,TemperatureF,DewpointF,PressureIn,WindDirection,WindDirectionDegrees,WindSpeedMPH,WindSpeedGustMPH,Humidity,HourlyPrecipIn,Conditions,Clouds,dailyrainin,SolarRadiationWatts/m^2,SoftwareType,DateUTC
2013-03-04 00:01:00,73.0,52.0,-100.00,ENE,68,15.0,31.0,48,0.00,,,0.00,0.000000,,2013-03-04 10:01:00,
2013-03-04 00:11:00,73.0,52.0,-100.00,ENE,68,15.0,31.0,48,0.00,,,0.00,0.000000,,2013-03-04 10:11:00,
2013-03-04 00:21:00,73.0,52.0,-100.00,ENE,68,15.0,31.0,48,0.00,,,0.00,0.000000,,2013-03-04 10:21:00,
2013-03-04 00:42:00,73.0,54.0,-100.00,ENE,57,12.0,28.0,51,0.00,,,0.00,0.000000,,2013-03-04 10:42:00,
2013-03-04 00:52:00,73.0,54.0,-100.00,ENE,57,12.0,28.0,51,0.00,,,0.00,0.000000,,2013-03-04 10:52:00,
2013-03-04 01:01:00,73.0,54.0,-100.00,ENE,57,12.0,28.0,51,0.00,,,0.00,0.000000,,2013-03-04 11:01:00,
2013-03-04 01:11:00,73.0,54.0,-100.00,ENE,57,12.0,28.0,51,0.00,,,0.00,0.000000,,2013-03-04 11:11:00,
2013-03-04 01:21:00,73.0,54.0,-100.00,ENE,57,12.0,28.0,51,0.00,,,0.00,0.000000,,2013-03-04 11:21:00,
2013-03-04 01:42:00,71.0,50.0,-100.00,East,90,18.0,36.0,47,0.00,,,0.00,0.000000,,2013-03-04 11:42:00,
2013-03-04 01:52:00,71.0,50.0,-100.00,East,90,18.0,36.0,47,0.00,,,0.00,0.000000,,2013-03-04 11:52:00,
2013-03-04 02:01:00,71.0,50.0,-100.00,East,90,18.0,36.0,47,0.00,,,0.00,0.000000,,2013-03-04 12:01:00,
2013-03-04 02:11:00,71.0,50.0,-100.00,East,90,18.0,36.0,47,0.00,,,0.00,0.000000,,2013-03-04 12:11:00,
2013-03-04 02:21:00,71.0,50.0,-100.00,East,90,18.0,36.0,47,0.00,,,0.00,0.000000,,2013-03-04 12:21:00,
2013-03-04 02:42:00,71.0,45.0,-100.00,East,99,14.0,35.0,40,0.00,,,0.00,0.000000,,2013-03-04 12:42:00,
2013-03-04 02:53:00,71.0,45.0,-100.00,East,99,14.0,35.0,40,0.00,,,0.00,0.000000,,2013-03-04 12:53:00,
2013-03-04 03:02:00,71.0,45.0,-100.00,East,99,14.0,35.0,40,0.00,,,0.00,0.000000,,2013-03-04 13:02:00,
2013-03-04 03:11:00,71.0,45.0,-100.00,East,99,14.0,35.0,40,0.00,,,0.00,0.000000,,2013-03-04 13:11:00,
2013-03-04 03:21:00,71.0,45.0,-100.00,East,99,14.0,35.0,40,0.00,,,0.00,0.000000,,2013-03-04 13:21:00,
2013-03-04 03:42:00,70.0,45.0,-100.00,East,87,8.0,18.0,41,0.00,,,0.00,0.000000,,2013-03-04 13:42:00,
2013-03-04 03:52:00,70.0,45.0,-100.00,East,87,8.0,18.0,41,0.00,,,0.00,0.000000,,2013-03-04 13:52:00,
2013-03-04 04:01:00,70.0,45.0,-100.00,East,87,8.0,18.0,41,0.00,,,0.00,0.000000,,2013-03-04 14:01:00,
2013-03-04 04:11:00,70.0,45.0,-100.00,East,87,8.0,18.0,41,0.00,,,0.00,0.000000,,2013-03-04 14:11:00,
2013-03-04 04:21:00,70.0,45.0,-100.00,East,87,8.0,18.0,41,0.00,,,0.00,0.000000,,2013-03-04 14:21:00,
2013-03-04 04:42:00,69.0,47.0,-100.00,East,83,7.0,16.0,45,0.00,,,0.00,0.000000,,2013-03-04 14:42:00,
2013-03-04 04:52:00,69.0,47.0,-100.00,East,83,7.0,16.0,45,0.00,,,0.00,0.000000,,2013-03-04 14:52:00,
2013-03-04 05:01:00,69.0,47.0,-100.00,East,83,7.0,16.0,45,0.00,,,0.00,0.000000,,2013-03-04 15:01:00,
2013-03-04 05:11:00,69.0,47.0,-100.00,East,83,7.0,16.0,45,0.00,,,0.00,0.000000,,2013-03-04 15:11:00,
2013-03-04 05:21:00,69.0,47.0,-100.00,East,83,7.0,16.0,45,0.00,,,0.00,0.000000,,2013-03-04 15:21:00,
2013-03-04 05:42:00,67.0,46.0,-100.00,East,87,5.0,10.0,47,0.00,,,0.00,0.000000,,2013-03-04 15:42:00,
2013-03-04 05:52:00,67.0,46.0,-100.00,East,87,5.0,10.0,47,0.00,,,0.00,0.000000,,2013-03-04 15:52:00,
2013-03-04 06:02:00,67.0,46.0,-100.00,East,87,5.0,10.0,47,0.00,,,0.00,0.000000,,2013-03-04 16:02:00,
2013-03-04 06:11:00,67.0,46.0,-100.00,East,87,5.0,10.0,47,0.00,,,0.00,0.000000,,2013-03-04 16:11:00,
2013-03-04 06:21:00,67.0,46.0,-100.00,East,87,5.0,10.0,47,0.00,,,0.00,0.000000,,2013-03-04 16:21:00,
2013-03-04 06:42:00,68.0,51.0,-100.00,ENE,77,6.0,12.0,55,0.00,,,-99.99,0.000000,,2013-03-04 16:42:00,
2013-03-04 06:52:00,68.0,51.0,-100.00,ENE,77,6.0,12.0,55,0.00,,,-99.99,0.000000,,2013-03-04 16:52:00,
2013-03-04 07:02:00,68.0,51.0,-100.00,ENE,77,6.0,12.0,55,0.00,,,-99.99,0.000000,,2013-03-04 17:02:00,
2013-03-04 07:11:00,68.0,51.0,-100.00,ENE,77,6.0,12.0,55,0.00,,,-99.99,0.000000,,2013-03-04 17:11:00,
2013-03-04 07:21:00,68.0,51.0,-100.00,ENE,77,6.0,12.0,55,0.00,,,-99.99,0.000000,,2013-03-04 17:21:00,
2013-03-04 07:42:00,67.0,51.0,-100.00,ENE,59,5.0,11.0,56,0.00,,,0.00,4.000000,,2013-03-04 17:42:00,
2013-03-04 07:52:00,67.0,51.0,-100.00,ENE,59,5.0,11.0,56,0.00,,,0.00,4.000000,,2013-03-04 17:52:00,
2013-03-04 08:01:00,67.0,51.0,-100.00,ENE,59,5.0,11.0,56,0.00,,,0.00,4.000000,,2013-03-04 18:01:00,
2013-03-04 08:11:00,67.0,51.0,-100.00,ENE,59,5.0,11.0,56,0.00,,,0.00,4.000000,,2013-03-04 18:11:00,
2013-03-04 08:21:00,67.0,51.0,-100.00,ENE,59,5.0,11.0,56,0.00,,,0.00,4.000000,,2013-03-04 18:21:00,
2013-03-04 08:42:00,70.0,47.0,-100.00,East,88,6.0,22.0,44,0.00,,,0.00,144.000000,,2013-03-04 18:42:00,
2013-03-04 08:52:00,70.0,47.0,-100.00,East,88,6.0,22.0,44,0.00,,,0.00,144.000000,,2013-03-04 18:52:00,
2013-03-04 09:01:00,70.0,47.0,-100.00,East,88,6.0,22.0,44,0.00,,,0.00,144.000000,,2013-03-04 19:01:00,
2013-03-04 09:11:00,70.0,47.0,-100.00,East,88,6.0,22.0,44,0.00,,,0.00,144.000000,,2013-03-04 19:11:00,
2013-03-04 09:21:00,70.0,47.0,-100.00,East,88,6.0,22.0,44,0.00,,,0.00,144.000000,,2013-03-04 19:21:00,
2013-03-04 09:42:00,75.0,54.0,-100.00,NNE,16,4.0,20.0,48,0.00,,,0.00,398.000000,,2013-03-04 19:42:00,
2013-03-04 09:52:00,75.0,54.0,-100.00,NNE,16,4.0,20.0,48,0.00,,,0.00,398.000000,,2013-03-04 19:52:00,
2013-03-04 10:01:00,75.0,54.0,-100.00,NNE,16,4.0,20.0,48,0.00,,,0.00,398.000000,,2013-03-04 20:01:00,
2013-03-04 10:11:00,75.0,54.0,-100.00,NNE,16,4.0,20.0,48,0.00,,,0.00,398.000000,,2013-03-04 20:11:00,
2013-03-04 10:21:00,75.0,54.0,-100.00,NNE,16,4.0,20.0,48,0.00,,,0.00,398.000000,,2013-03-04 20:21:00,
2013-03-04 10:42:00,75.0,54.0,-100.00,WNW,285,6.0,10.0,48,0.00,,,0.00,643.000000,,2013-03-04 20:42:00,
2013-03-04 10:52:00,75.0,54.0,-100.00,WNW,285,6.0,10.0,48,0.00,,,0.00,643.000000,,2013-03-04 20:52:00,
2013-03-04 11:01:00,75.0,54.0,-100.00,WNW,285,6.0,10.0,48,0.00,,,0.00,643.000000,,2013-03-04 21:01:00,
2013-03-04 11:11:00,75.0,54.0,-100.00,WNW,285,6.0,10.0,48,0.00,,,0.00,643.000000,,2013-03-04 21:11:00,
2013-03-04 11:21:00,75.0,54.0,-100.00,WNW,285,6.0,10.0,48,0.00,,,0.00,643.000000,,2013-03-04 21:21:00,
2013-03-04 11:43:00,76.0,54.0,-100.00,WNW,283,6.0,10.0,46,0.00,,,0.00,651.000000,,2013-03-04 21:43:00,
2013-03-04 11:52:00,76.0,54.0,-100.00,WNW,283,6.0,10.0,46,0.00,,,0.00,651.000000,,2013-03-04 21:52:00,
2013-03-04 12:01:00,76.0,54.0,-100.00,WNW,283,6.0,10.0,46,0.00,,,0.00,651.000000,,2013-03-04 22:01:00,
2013-03-04 12:11:00,76.0,54.0,-100.00,WNW,283,6.0,10.0,46,0.00,,,0.00,651.000000,,2013-03-04 22:11:00,
2013-03-04 12:21:00,76.0,54.0,-100.00,WNW,283,6.0,10.0,46,0.00,,,0.00,651.000000,,2013-03-04 22:21:00,
2013-03-04 12:43:00,77.0,51.0,-100.00,West,277,8.0,12.0,40,0.00,,,0.00,893.000000,,2013-03-04 22:43:00,
2013-03-04 12:52:00,77.0,51.0,-100.00,West,277,8.0,12.0,40,0.00,,,0.00,893.000000,,2013-03-04 22:52:00,
2013-03-04 13:01:00,77.0,51.0,-100.00,West,277,8.0,12.0,40,0.00,,,0.00,893.000000,,2013-03-04 23:01:00,
2013-03-04 13:11:00,77.0,51.0,-100.00,West,277,8.0,12.0,40,0.00,,,0.00,893.000000,,2013-03-04 23:11:00,
2013-03-04 13:21:00,77.0,51.0,-100.00,West,277,8.0,12.0,40,0.00,,,0.00,893.000000,,2013-03-04 23:21:00,
2013-03-04 13:42:00,79.0,53.0,-100.00,West,267,7.0,11.0,40,0.00,,,0.00,954.000000,,2013-03-04 23:42:00,
2013-03-04 13:52:00,79.0,53.0,-100.00,West,267,7.0,11.0,40,0.00,,,0.00,954.000000,,2013-03-04 23:52:00,
2013-03-04 14:01:00,79.0,53.0,-100.00,West,267,7.0,11.0,40,0.00,,,0.00,954.000000,,2013-03-05 00:01:00,
2013-03-04 14:11:00,79.0,53.0,-100.00,West,267,7.0,11.0,40,0.00,,,0.00,954.000000,,2013-03-05 00:11:00,
2013-03-04 14:21:00,79.0,53.0,-100.00,West,267,7.0,11.0,40,0.00,,,0.00,954.000000,,2013-03-05 00:21:00,
2013-03-04 14:42:00,79.0,60.0,-100.00,WSW,258,7.0,13.0,53,0.00,,,0.00,918.000000,,2013-03-05 00:42:00,
2013-03-04 14:52:00,79.0,60.0,-100.00,WSW,258,7.0,13.0,53,0.00,,,0.00,918.000000,,2013-03-05 00:52:00,
2013-03-04 15:01:00,79.0,60.0,-100.00,WSW,258,7.0,13.0,53,0.00,,,0.00,918.000000,,2013-03-05 01:01:00,
2013-03-04 15:11:00,79.0,60.0,-100.00,WSW,258,7.0,13.0,53,0.00,,,0.00,918.000000,,2013-03-05 01:11:00,
2013-03-04 15:21:00,79.0,60.0,-100.00,WSW,258,7.0,13.0,53,0.00,,,0.00,918.000000,,2013-03-05 01:21:00,
2013-03-04 15:42:00,79.0,61.0,-100.00,WSW,255,6.0,12.0,55,0.00,,,-99.99,807.000000,,2013-03-05 01:42:00,
2013-03-04 15:52:00,79.0,61.0,-100.00,WSW,255,6.0,12.0,55,0.00,,,-99.99,807.000000,,2013-03-05 01:52:00,
2013-03-04 16:01:00,79.0,61.0,-100.00,WSW,255,6.0,12.0,55,0.00,,,-99.99,807.000000,,2013-03-05 02:01:00,
2013-03-04 16:11:00,79.0,61.0,-100.00,WSW,255,6.0,12.0,55,0.00,,,-99.99,807.000000,,2013-03-05 02:11:00,
2013-03-04 16:21:00,79.0,61.0,-100.00,WSW,255,6.0,12.0,55,0.00,,,-99.99,807.000000,,2013-03-05 02:21:00,
2013-03-04 16:42:00,78.0,59.0,-100.00,WSW,248,5.0,10.0,53,0.00,,,0.00,630.000000,,2013-03-05 02:42:00,
2013-03-04 16:52:00,78.0,59.0,-100.00,WSW,248,5.0,10.0,53,0.00,,,0.00,630.000000,,2013-03-05 02:52:00,
2013-03-04 17:01:00,78.0,59.0,-100.00,WSW,248,5.0,10.0,53,0.00,,,0.00,630.000000,,2013-03-05 03:01:00,
2013-03-04 17:11:00,78.0,59.0,-100.00,WSW,248,5.0,10.0,53,0.00,,,0.00,630.000000,,2013-03-05 03:11:00,
2013-03-04 17:21:00,78.0,59.0,-100.00,WSW,248,5.0,10.0,53,0.00,,,0.00,630.000000,,2013-03-05 03:21:00,
2013-03-04 17:42:00,78.0,61.0,-100.00,West,263,6.0,10.0,55,0.00,,,0.00,403.000000,,2013-03-05 03:42:00,
2013-03-04 17:52:00,78.0,61.0,-100.00,West,263,6.0,10.0,55,0.00,,,0.00,403.000000,,2013-03-05 03:52:00,
2013-03-04 18:01:00,78.0,61.0,-100.00,West,263,6.0,10.0,55,0.00,,,0.00,403.000000,,2013-03-05 04:01:00,
2013-03-04 18:11:00,78.0,61.0,-100.00,West,263,6.0,10.0,55,0.00,,,0.00,403.000000,,2013-03-05 04:11:00,
2013-03-04 18:21:00,78.0,61.0,-100.00,West,263,6.0,10.0,55,0.00,,,0.00,403.000000,,2013-03-05 04:21:00,
2013-03-04 18:42:00,76.0,59.0,-100.00,West,270,4.0,8.0,56,0.00,,,0.00,173.000000,,2013-03-05 04:42:00,
2013-03-04 18:52:00,76.0,59.0,-100.00,West,270,4.0,8.0,56,0.00,,,0.00,173.000000,,2013-03-05 04:52:00,
2013-03-04 19:01:00,76.0,59.0,-100.00,West,270,4.0,8.0,56,0.00,,,0.00,173.000000,,2013-03-05 05:01:00,
2013-03-04 19:11:00,76.0,59.0,-100.00,West,270,4.0,8.0,56,0.00,,,0.00,173.000000,,2013-03-05 05:11:00,
2013-03-04 19:22:00,76.0,59.0,-100.00,West,270,4.0,8.0,56,0.00,,,0.00,173.000000,,2013-03-05 05:22:00,
2013-03-04 19:42:00,74.0,59.0,-100.00,SW,235,1.0,5.0,60,0.00,,,0.00,14.000000,,2013-03-05 05:42:00,
2013-03-04 19:52:00,74.0,59.0,-100.00,SW,235,1.0,5.0,60,0.00,,,0.00,14.000000,,2013-03-05 05:52:00,
2013-03-04 20:01:00,74.0,59.0,-100.00,SW,235,1.0,5.0,60,0.00,,,0.00,14.000000,,2013-03-05 06:01:00,
2013-03-04 20:11:00,74.0,59.0,-100.00,SW,235,1.0,5.0,60,0.00,,,0.00,14.000000,,2013-03-05 06:11:00,
2013-03-04 20:21:00,74.0,59.0,-100.00,SW,235,1.0,5.0,60,0.00,,,0.00,14.000000,,2013-03-05 06:21:00,
2013-03-04 20:42:00,74.0,52.0,-100.00,East,92,4.0,12.0,46,0.00,,,0.00,0.000000,,2013-03-05 06:42:00,
2013-03-04 20:52:00,74.0,52.0,-100.00,East,92,4.0,12.0,46,0.00,,,0.00,0.000000,,2013-03-05 06:52:00,
2013-03-04 21:01:00,74.0,52.0,-100.00,East,92,4.0,12.0,46,0.00,,,0.00,0.000000,,2013-03-05 07:01:00,
2013-03-04 21:11:00,74.0,52.0,-100.00,East,92,4.0,12.0,46,0.00,,,0.00,0.000000,,2013-03-05 07:11:00,
2013-03-04 21:21:00,74.0,52.0,-100.00,East,92,4.0,12.0,46,0.00,,,0.00,0.000000,,2013-03-05 07:21:00,
2013-03-04 21:42:00,73.0,54.0,-100.00,East,97,4.0,11.0,51,0.00,,,0.00,0.000000,,2013-03-05 07:42:00,
2013-03-04 21:52:00,73.0,54.0,-100.00,East,97,4.0,11.0,51,0.00,,,0.00,0.000000,,2013-03-05 07:52:00,
2013-03-04 22:02:00,73.0,54.0,-100.00,East,97,4.0,11.0,51,0.00,,,0.00,0.000000,,2013-03-05 08:02:00,
2013-03-04 22:11:00,73.0,54.0,-100.00,East,97,4.0,11.0,51,0.00,,,0.00,0.000000,,2013-03-05 08:11:00,
2013-03-04 22:21:00,73.0,54.0,-100.00,East,97,4.0,11.0,51,0.00,,,0.00,0.000000,,2013-03-05 08:21:00,
2013-03-04 22:42:00,73.0,54.0,-100.00,East,85,9.0,24.0,52,0.00,,,0.00,0.000000,,2013-03-05 08:42:00,
2013-03-04 22:52:00,73.0,54.0,-100.00,East,85,9.0,24.0,52,0.00,,,0.00,0.000000,,2013-03-05 08:52:00,
2013-03-04 23:01:00,73.0,54.0,-100.00,East,85,9.0,24.0,52,0.00,,,0.00,0.000000,,2013-03-05 09:01:00,
2013-03-04 23:11:00,73.0,54.0,-100.00,East,85,9.0,24.0,52,0.00,,,0.00,0.000000,,2013-03-05 09:11:00,
2013-03-04 23:21:00,73.0,54.0,-100.00,East,85,9.0,24.0,52,0.00,,,0.00,0.000000,,2013-03-05 09:21:00,
2013-03-04 23:43:00,72.0,55.0,-100.00,East,81,5.0,12.0,56,0.00,,,0.00,0.000000,,2013-03-05 09:43:00,
2013-03-04 23:52:00,72.0,55.0,-100.00,East,81,5.0,12.0,56,0.00,,,0.00,0.000000,,2013-03-05 09:52:00,